Location: Moena
(46.3667°N, 11.6500°E)
Time: 10:30:56
(UTC+00:00)

GP-B - Pass Details

Date: 23 June 2021
Orbit: 631 x 635 km, 89.8° (Epoch: 28 July)

Event Time Altitude Azimuth Distance (km) Brightness Sun altitude
Rises 22:45:38 0° 3° (N) 2,943 8.1 -19.9°
Reaches altitude 10° 22:47:52 10° 6° (N) 2,029 6.8 -19.9°
Maximum altitude 22:52:19 70° 90° (E) 679 3.1 -20.0°
Enters shadow 22:53:26 48° 155° (SSE) 829 3.3 -20.0°
